Regional Weather Roundup
Issued by NWS Upton, NY

Current Version | Previous Version | Graphics & Text | Print | Product List | Glossary On
Versions: 1 2 3 4 5 6 7 8 9 10 11 12 13 14 15 16 17 18 19 20 21 22 23 24 25 26 27 28 29 30 31 32 33 34 35 36 37 38 39 40 41 42 43 44 45 46 47 48 49 50
000 ASUS41 KOKX 211208 RWROKX Regional Weather Roundup National Weather Service New York NY 700 AM EST SUN JAN 21 2018 Note: "FAIR" indicates few or no clouds below 12,000 feet with no significant weather and/or obstructions to visibility. NYZ071-072-176-178-NJZ106-104-211300- New York City Metro Area CITY SKY/WX TMP DP RH WIND PRES REMARKS Central Park FAIR 43 28 55 W7 30.16R Bronx Bot Gard N/A 41 28 60 W8 30.13F Bronx Lehman C NOT AVBL LaGuardia Arpt FAIR 44 28 53 W5 30.14R Queens College N/A 43 30 61 W5 N/A Kennedy Intl FAIR 33 28 81 W8 30.15R WCI 26 Breezy Point N/A 36 N/A N/A W5 N/A WCI 32 Brooklyn Coll NOT AVBL Staten Island N/A 37 30 75 S3 N/A Newark/Liberty FAIR 36 28 73 SW3 30.15R Teterboro FAIR 30 26 85 CALM 30.13R $$ NYZ177-179-078>081-211300- Long Island New York CITY SKY/WX TMP DP RH WIND PRES REMARKS Jones Beach N/A 37 N/A N/A W8 N/A WCI 31 Wantagh N/A 36 30 80 SW3 N/A Matinecock Pt N/A 36 N/A N/A SW7 N/A WCI 30 Farmingdale FAIR 32 27 81 CALM 30.14R MacArthur/ISP FAIR 32 26 78 CALM 30.13R Shirley FAIR 27 26 96 CALM 30.14R Mt Sinai Harb N/A N/A N/A N/A W2 N/A Westhampton FAIR 23 18 81 CALM 30.15R East Hampton FAIR 28 25 88 CALM 30.12R Southold N/A 32 28 86 SW3 N/A Montauk N/A 38 30 73 CALM 30.12R $$ NYZ052-065-067-211300- Hudson Valley CITY SKY/WX TMP DP RH WIND PRES REMARKS White Plains FAIR 30 27 88 W5 30.11R WCI 25 Larchmont Harb N/A 39 N/A N/A W7 N/A WCI 34 Croton On Huds N/A N/A N/A N/A E3 N/A Somers N/A 34 27 75 SW2 N/A Brewster NOT AVBL Newburgh PTCLDY 30 27 86 W6 30.11R WCI 24 Montgomery FAIR 31 24 75 SW8 30.10R WCI 23 Otisville N/A 32 28 86 SW3 N/A Warwick N/A 27 25 93 CALM N/A Suffern N/A 39 28 65 W5 N/A Poughkeepsie FAIR 21 18 88 CALM 30.13R Albany CLOUDY 38 28 67 NW9 30.12R WCI 31 $$ NJZ001-105-106-008-010-013-015-019>022-104-211300- New Jersey CITY SKY/WX TMP DP RH WIND PRES REMARKS Newark/Liberty FAIR 36 28 73 SW3 30.15R Teterboro FAIR 30 26 85 CALM 30.13R Caldwell FAIR 26 25 96 CALM 30.15R Somerville FAIR 24 23 96 CALM 30.14R Linden FAIR 32 26 77 CALM 30.15R Perth Amboy N/A 36 N/A N/A NW5 N/A WCI 32 Sussex FAIR 20 18 92 CALM 30.13R Andover N/A 21 20 96 CALM 30.14R Trenton FAIR 39 29 67 W5 30.15R Millville FAIR 25 23 92 CALM 30.18R Atlantic City FAIR 29 25 85 CALM 30.17R Wrightstown FAIR 40 30 66 W6 30.13R Toms River FAIR 26 23 88 W3 30.17R Belmar FAIR 36 28 73 W5 30.16R WCI 32 $$ PAZ047>061-062-071-211300- Eastern Pennsylvania CITY SKY/WX TMP DP RH WIND PRES REMARKS Philadelphia FAIR 33 28 81 S6 30.18R WCI 28 Allentown FAIR 39 29 67 NW7 30.14R WCI 34 Scranton FAIR 27 25 92 CALM 30.13R $$ CTZ002-004>006-009-010-012-RIZ004-006-007-MAZ004-011-015-211300- Southern New England In CT CITY SKY/WX TMP DP RH WIND PRES REMARKS Bradley Intl MOCLDY 24 23 96 SW6 30.10R WCI 17 Hartford FAIR 26 24 92 S3 30.12R Danbury FAIR 23 21 92 CALM 30.13R Wtrbury/Oxford FAIR 30 26 85 SW3 30.10R Norwalk Harbor N/A N/A N/A N/A NW3 N/A Bridgeport FAIR 27 24 89 CALM 30.13R Meriden FAIR 23 22 96 CALM 30.12R New Haven FAIR 26 22 84 CALM 30.12R Chester FAIR 37 28 70 W3 30.10R Groton FAIR 28 24 85 CALM 30.10R Willimantic FAIR 29 25 85 CALM 30.10R In RI CITY SKY/WX TMP DP RH WIND PRES REMARKS Providence FAIR 34 28 79 W3 30.11R Block Island FAIR 38 31 76 W8 30.11R WCI 32 Westerly FAIR 32 28 85 N3 30.11R In MA CITY SKY/WX TMP DP RH WIND PRES REMARKS Boston NOT AVBL Worcester FAIR 35 26 69 NW9 30.04R WCI 28 Westfield FAIR 38 29 70 NW12 30.08R WCI 30 Provincetown FAIR 37 31 78 W7 N/A WCI 32 Nantucket FAIR 37 30 75 NW8 30.07S WCI 31 $$ ANZ330-335-338-340-345-350-353-355-211300- Coastal Marine Observations STATION/POSITION TIME SKY/WX TEMP WIND PRES VSBY WAVE AIR SEA DIR/SP/G HT/PER (UTC) (F) (DEG/KT/KT) (MB) (MI) (FT/S) NY Harb Entrance 1150 40 38 260/ 10/ 10 1020.4 2/ 7 20 S Fire Island 1150 42 41 280/ 10/ 12 1020.6 3/ 7 15 E Barnegat Li 1130 42 N/A 3/ 7 Hudson Canyon 1150 48 49 320/ 12/ 12 1020.2 4/ 7 Kings Point 1142 40 33 10/ 1/ 2 1021.3 Execution Rocks NOT AVBL Western LI Sound NOT AVBL Central LI Sound 1115 36 250/ 4/ 6 N/A 0 Robbins Reef 1142 39 270/ 7/ 8 1021.1 $$ >>>>>>>>>>>>>>>>>>>>>>>>>>>> KEY <<<<<<<<<<<<<<<<<<<<<<<<<<< > < > SKY/WX - Sky Condition/Present Weather < > TMP - Temperature in Fahrenheit < > DP - Dew Point in Fahrenheit < > RH - Relative Humidity in Percent < > WIND - Direction (from) and Speed in MPH < > PRES - Mean Sea Level Pressure (inches of Hg) < > WCI - Wind Chill Index < > VSB - Visibility in Miles < > HX - Heat Index < > TC - Temperature in Celsius < > VRB - Varibale Wind Direction < > < >>>>>>>>>>>>>>>>>>>>>>>>>>>> KEY <<<<<<<<<<<<<<<<<<<<<<<<<<<

USA.gov is the U.S. government's official web portal to all federal, state and local government web resources and services.